This is the latest recevied weather packets stored in our database for station/object KF7U. If no packets are shown the sender has not sent any weather packets the latest 10 day(s).
| Time | Temp. | Humidity | Pressure | Rain* | Wind** | Luminosity | Snow |
|---|---|---|---|---|---|---|---|
| 1777226255 | 22.22° C | 30% | 1009.8 hPa | 0 mm | - | 966 W/m² | - |
| 1777225955 | 22.78° C | 31% | 1009.8 hPa | 0 mm | - | 985 W/m² | - |
| 1777225654 | 22.78° C | 31% | 1009.8 hPa | 0 mm | - | 937 W/m² | - |
| 1777225355 | 22.78° C | 31% | 1010.2 hPa | 0 mm | - | 947 W/m² | - |
| 1777225055 | 22.22° C | 32% | 1009.8 hPa | 0 mm | - | 933 W/m² | - |
| 1777224755 | 22.78° C | 31% | 1009.8 hPa | 0 mm | - | 653 W/m² | - |
| 1777224455 | 22.78° C | 31% | 1009.5 hPa | 0 mm | - | 898 W/m² | - |
| 1777224155 | 22.22° C | 32% | 1009.5 hPa | 0 mm | - | 875 W/m² | - |
| 1777223855 | 22.78° C | 31% | 1009.5 hPa | 0 mm | - | 850 W/m² | - |
| 1777223554 | 22.22° C | 33% | 1009.5 hPa | 0 mm | - | 888 W/m² | - |
| 1777223255 | 22.22° C | 32% | 1009.5 hPa | 0 mm | - | 872 W/m² | - |
| 1777222954 | 21.67° C | 32% | 1009.5 hPa | 0 mm | - | 856 W/m² | - |
| 1777222656 | 22.22° C | 32% | 1009.5 hPa | 0 mm | - | 844 W/m² | - |
| 1777222355 | 21.67° C | 33% | 1009.1 hPa | 0 mm | - | 827 W/m² | - |
| 1777222055 | 21.67° C | 33% | 1009.1 hPa | 0 mm | - | 809 W/m² | - |
| 1777221755 | 21.67° C | 33% | 1009.1 hPa | 0 mm | - | 791 W/m² | - |
| 1777221454 | 21.11° C | 34% | 1009.1 hPa | 0 mm | - | 767 W/m² | - |
| 1777221155 | 20.56° C | 35% | 1009.1 hPa | 0 mm | - | 747 W/m² | - |
| 1777220855 | 20.56° C | 35% | 1009.1 hPa | 0 mm | - | 725 W/m² | - |
| 1777220554 | 20.56° C | 36% | 1009.1 hPa | 0 mm | - | 735 W/m² | - |
| 1777220254 | 20.56° C | 36% | 1009.1 hPa | 0 mm | - | 721 W/m² | - |
| 1777219955 | 20.56° C | 37% | 1008.8 hPa | 0 mm | - | 680 W/m² | - |
| 1777219656 | 20.56° C | 37% | 1008.8 hPa | 0 mm | - | 649 W/m² | - |
| 1777219355 | 20° C | 38% | 1008.8 hPa | 0 mm | - | 678 W/m² | - |
| 1777219055 | 19.44° C | 39% | 1008.8 hPa | 0 mm | - | 667 W/m² | - |
* Rain latest hour (hover to see other rain measurements)
** Current wind speed in m/s (hover to see current wind gust speed)